Volver al catálogo

FENGYUN 1C DEB

ActivoSSO
NORAD 30514·DEBRIS·🇨🇳 China

Lanzado May 10, 1999 desde Taiyuan Satellite Launch Center

Loading…

Próximos Pases (próximas 24 horas)

TLE

ActualizadoSource: Space-Track

Época: Sep 13, 2026, 18:34 UTC

1 30514U 99025AJC 26256.77417417  .00001090  00000-0  33709-3 0  9992
2 30514  98.3937 278.0459 0171218 355.0368   4.9113 14.35220929 21670

Sigue FENGYUN 1C DEB en tiempo real con AllMySat

Download on the App Store